Stillwater, OK

12:24 AM CDT on March 27, 2017 (GMT -0500)
Stillwater Municipal

Weather History for KSWO - September, 2013

Change the Weather History Date:

Thursday, September 19, 2013

  Actual Average Record
Temperature  
Mean Temperature 82 °F -  
Max Temperature 93 °F 81 °F 99 °F (1997)
Min Temperature 71 °F 57 °F 44 °F (2003)
Cooling Degree Days 17    
Growing Degree Days 32 (Base 50)    
Moisture  
Dew Point 66 °F    
Average Humidity 64    
Maximum Humidity 84    
Minimum Humidity 41    
Precipitation  
Precipitation 0.00 in - - ()
Sea Level Pressure  
Sea Level Pressure 29.88 in    
Wind  
Wind Speed 11 mph (SSW)    
Max Wind Speed 17 mph    
Max Gust Speed 31 mph    
Visibility 10 miles    
Events      
Averages and records for this station are not official NWS values.
T = Trace of Precipitation, MM = Missing Value Source: NWS Daily Summary

Daily Weather History Graph

Daily Weather History Graph

Search for Another Location

Airport or City:

Trip Planner

Search our weather history database for the weather conditions in past years. The results will help you decide how hot, cold, wet, or windy it might be!

Date:

Astronomy

Sep. 19, 2013 Rise Set
Actual Time 7:14 AM CDT 7:29 PM CDT
Civil Twilight 6:48 AM CDT 7:54 PM CDT
Nautical Twilight 6:18 AM CDT 8:24 PM CDT
Astronomical Twilight 5:47 AM CDT 8:55 PM CDT
Moon 7:30 PM CDT (9/19) 7:23 AM CDT (9/19)
Length of Visible Light 13h 06m
Length of Day
12h 15m
Full, 100% of the Moon is Illuminated
Sep 19
Full
Sep 26
Last Quarter
Oct 4
New
Oct 11
First Quarter
Oct 18
Full

Hourly Weather History & Observations

Time (CDT) Temp. Heat Index Dew Point Humidity Pressure Visibility Wind Dir Wind Speed Gust Speed Precip Events Conditions
12:53 AM 79.0 °F - 66.0 °F 64% 29.86 in 10.0 mi SSE 15.0 mph - N/A   Clear
1:53 AM 77.0 °F - 66.0 °F 69% 29.86 in 10.0 mi South 11.5 mph - N/A   Clear
2:53 AM 75.9 °F - 66.0 °F 71% 29.86 in 10.0 mi South 11.5 mph - N/A   Clear
3:53 AM 75.0 °F - 66.0 °F 73% 29.85 in 10.0 mi South 11.5 mph - N/A   Clear
4:53 AM 73.9 °F - 66.0 °F 76% 29.85 in 10.0 mi South 10.4 mph - N/A   Clear
5:53 AM 72.0 °F - 66.0 °F 81% 29.86 in 10.0 mi SSE 8.1 mph - N/A   Clear
6:53 AM 72.0 °F - 64.9 °F 78% 29.87 in 10.0 mi SSE 5.8 mph - N/A   Clear
7:53 AM 73.0 °F - 66.0 °F 79% 29.88 in 9.0 mi SSE 6.9 mph - N/A   Clear
8:53 AM 78.1 °F - 66.0 °F 66% 29.89 in 10.0 mi South 9.2 mph - N/A   Clear
9:53 AM 84.9 °F 87.1 °F 66.0 °F 53% 29.91 in 10.0 mi SSW 11.5 mph - N/A   Partly Cloudy
10:53 AM 89.1 °F 91.3 °F 66.0 °F 46% 29.91 in 10.0 mi SSW 12.7 mph 21.9 mph N/A   Partly Cloudy
11:53 AM 91.9 °F 94.5 °F 66.0 °F 42% 29.90 in 10.0 mi SW 15.0 mph 21.9 mph N/A   Scattered Clouds
12:53 PM 91.0 °F 93.8 °F 66.0 °F 44% 29.89 in 10.0 mi SW 17.3 mph 24.2 mph N/A   Mostly Cloudy
1:53 PM 91.9 °F 94.1 °F 64.9 °F 41% 29.86 in 10.0 mi WSW 17.3 mph 31.1 mph N/A   Scattered Clouds
2:53 PM 93.9 °F 97.5 °F 66.9 °F 41% 29.84 in 10.0 mi SSW 13.8 mph 20.7 mph N/A   Mostly Cloudy
3:53 PM 90.0 °F 92.8 °F 66.9 °F 46% 29.83 in 10.0 mi South 10.4 mph 18.4 mph N/A   Mostly Cloudy
4:53 PM 84.9 °F 87.1 °F 66.0 °F 53% 29.84 in 10.0 mi South 17.3 mph 26.5 mph N/A   Scattered Clouds
5:53 PM 81.0 °F 82.5 °F 64.0 °F 56% 29.84 in 10.0 mi South 16.1 mph 20.7 mph N/A   Clear
6:53 PM 79.0 °F - 64.9 °F 62% 29.85 in 10.0 mi SSW 6.9 mph - N/A   Clear
7:53 PM 75.0 °F - 66.0 °F 73% 29.88 in 10.0 mi Calm Calm - N/A   Clear
8:53 PM 75.9 °F - 66.9 °F 74% 29.93 in 10.0 mi North 10.4 mph 19.6 mph 0.00 in   Partly Cloudy
9:53 PM 71.1 °F - 66.0 °F 84% 29.94 in 10.0 mi North 4.6 mph - 0.00 in   Partly Cloudy
10:53 PM 71.1 °F - 64.9 °F 81% 29.93 in 10.0 mi WSW 3.5 mph - N/A   Clear
11:53 PM 71.1 °F - 66.0 °F 84% 29.93 in 10.0 mi SSW 4.6 mph - 0.00 in   Overcast